Regional Weather Roundup
Issued by NWS Albany, NY

Home | Current Version | Previous Version | Graphics & Text | Print | Product List | Glossary On
Versions: 1 2 3 4 5 6 7 8 9 10 11 12 13 14 15 16 17 18 19 20 21 22 23 24 25 26 27 28 29 30 31 32 33 34 35 36 37 38 39 40 41 42 43 44 45 46 47 48 49 50
854
ASUS41 KALY 071610
RWRALY

NEW YORK STATE HOURLY WEATHER ROUNDUP
NATIONAL WEATHER SERVICE ALBANY NY
1100 AM EST WED DEC 07 2016

NOTE: "FAIR" INDICATES FEW OR NO CLOUDS BELOW 12,000 FEET WITH NO
SIGNIFICANT WEATHER AND/OR NO OBSTRUCTIONS TO VISIBILITY.

NYZ032-033-038>043-046>054-057>066-NYZ062>081-082-084-071700-
EAST


CITY           SKY/WX    TMP DP  RH WIND       PRES   REMARKS
ALBANY         CLOUDY    35  33  92 S7        29.96F WCI  29
GLENS FALLS    CLOUDY    35  31  85 S7        29.95F FOG     WCI  29
POUGHKEEPSIE   CLOUDY    37  35  92 CALM      29.98F
NEWBURGH       CLOUDY    36  36 100 CALM      29.99F FOG
MONTGOMERY     CLOUDY    37  36  96 S5        29.97F WCI  33
WHITE PLAINS   CLOUDY    40  37  89 CALM      29.97F
ISLIP          CLOUDY    44  40  85 NE6       29.96F
NEW YORK CITY  DRIZZLE   43  38  82 NE5       29.99F
CENTRAL PARK   CLOUDY    41  37  86 CALM      30.01F
$$

NYZ005>009-017-018-044>046-055-056-071700-
CENTRAL


CITY           SKY/WX    TMP DP  RH WIND       PRES   REMARKS
FULTON         PTSUNNY   41  31  67 W20G30    29.95R
SYRACUSE       CLOUDY    41  34  76 W15       29.96R
ROME           MOSUNNY   39  35  86 W9        29.95S WCI  33
ELMIRA         PTSUNNY   41  28  60 W9        29.96R
BINGHAMTON     PTSUNNY   35  33  92 W8        29.92S WCI  29
MONTICELLO     CLOUDY    34  34 100 CALM      29.95F
$$

NYZ026>034-041>043-087-071700-
NORTH


CITY           SKY/WX    TMP DP  RH WIND       PRES   REMARKS
WATERTOWN      CLOUDY    41  33  73 W20G25    29.91R
FORT DRUM      NOT AVBL
OGDENSBURG     CLOUDY    40  39  95 W10       29.86R WCI  33
MASSENA        LGT RAIN  38  34  85 SW15      29.85S WCI  29
SARANAC LAKE   LGT SNOW  33  30  88 SW8       29.81F FOG     WCI  26
PLATTSBURGH    CLOUDY    37  32  82 S7        29.87F WCI  32
$$

NYZ001>004-010>016-019>021-085-071700-
WEST


CITY           SKY/WX    TMP DP  RH WIND       PRES   REMARKS
NIAGARA FALLS  PTSUNNY   38  25  59 W21       29.97S WCI  28
BUFFALO        PTSUNNY   36  26  67 W15G24    29.97R WCI  27
DUNKIRK        CLOUDY    37  28  70 SW15      29.99S WCI  28
JAMESTOWN      CLOUDY    34  23  64 W15G22    29.97S WCI  24
WELLSVILLE     CLOUDY    36  25  64 NW15G21   29.94F WCI  27
ROCHESTER      PTSUNNY   39  29  67 W16       29.97R WCI  30
PENN YAN       PTSUNNY   41  28  60 W16G25    29.96R
$$

             KEY
       WCI = WIND CHILL INDEX
       VSB = VISIBILITY
       HX  = HEAT INDEX
$$




USA.gov is the U.S. government's official web portal to all federal, state and local government web resources and services.